CAPE
4 0 0 0 0 0 0 0 0 0 0 0 0 0 1 0 62 37 48 2 6 6 557 1630 2158 2355 2284 2100 1968 1808 1661 1697 1710 1682 1645 1635 1532 1102 856 937 604 176 40 0 0 0 0 0 0
0 0 0 0 0 0 0 0 0 0 0 0 0 4 21 22 35 27 45 36 10 85 426 819 2018 2205 2349 2209 1945 1796 1719 1754 1762 1709 1736 1684 1552 1239 816 607 271 74 37 21 10 0 0 0 0
0 0 0 0 0 0 0 0 0 0 0 0 0 0 23 45 77 76 57 37 28 124 282 441 1810 2038 2289 2308 2018 1797 1831 1814 1870 1835 1801 1757 1605 1434 1158 850 475 65 47 20 6 0 5 7 0
0 0 0 0 0 0 0 0 0 0 0 0 0 0 0 30 117 107 46 78 48 161 225 722 1497 1794 2019 2163 2017 1894 1875 1931 2017 1958 1915 1804 1570 1570 1294 935 636 135 60 19 7 10 14 7 0
0 0 0 0 0 0 0 0 0 0 0 0 0 0 0 39 118 130 50 22 10 133 144 695 1312 1590 1821 2067 2034 1961 1953 1915 1999 2081 2001 1862 1859 1626 1275 965 353 119 92 53 33 44 70 67 41
0 0 0 0 0 0 0 0 0 0 0 0 0 0 4 84 139 75 8 11 29 56 131 550 1225 1333 1500 1792 1955 1965 1934 1926 1997 2090 2077 1991 1954 1717 1354 983 522 299 305 237 169 204 220 198 218
0 0 0 0 0 0 0 0 0 0 0 6 0 0 62 267 193 30 4 14 22 7 131 439 666 966 1398 1448 1687 1841 1882 1883 1925 1976 1927 1928 1964 1777 1521 1185 768 458 528 449 457 451 415 382 341
0 1 0 0 0 0 0 0 0 0 0 0 0 0 16 104 243 45 59 28 7 19 142 306 548 704 693 771 1479 1758 1836 1847 1896 1970 1878 1867 1875 1801 1604 1214 1027 619 533 562 697 694 637 571 590
0 0 0 0 0 0 4 0 0 0 0 0 0 30 8 304 290 85 28 49 107 108 266 411 474 593 577 505 774 1331 1436 1664 1857 1910 1854 1540 1303 1301 1039 948 680 623 566 569 797 828 797 753 710
0 0 0 0 0 0 0 0 0 0 0 0 0 42 83 334 410 104 46 51 33 78 154 315 381 444 447 380 413 716 568 689 892 900 1001 867 635 553 510 481 589 471 562 621 792 917 853 639 414
0 0 0 0 0 0 0 0 0 0 0 0 0 59 89 74 249 262 25 0 82 49 70 189 261 297 273 226 343 513 425 410 373 310 316 327 164 162 329 196 232 240 316 155 362 598 652 386 406
0 0 0 0 0 0 0 0 0 0 0 0 0 3 70 105 108 175 122 207 180 220 195 106 74 139 137 75 225 304 242 251 190 138 110 121 50 0 41 61 28 110 81 120 46 240 395 463 365
0 0 0 0 0 0 0 0 0 0 0 0 0 0 87 96 95 77 96 59 3 441 378 333 28 4 7 1 33 133 117 95 71 91 80 33 6 0 0 0 2 0 13 13 12 24 139 265 307
0 0 0 0 0 0 0 0 0 0 0 0 0 0 0 20 75 76 42 59 5 149 758 611 287 20 0 20 19 0 17 9 7 26 43 35 2 0 0 0 28 60 127 181 185 50 23 79 148
0 0 0 0 0 0 0 0 0 0 0 0 13 0 0 0 0 14 5 2 6 81 616 1043 625 300 32 35 28 28 42 79 96 181 124 68 25 56 66 125 223 239 336 444 434 301 28 9 39
0 0 0 0 0 0 0 0 0 0 0 0 0 0 0 1 0 0 0 0 22 93 134 1010 983 589 335 110 68 74 123 129 374 349 237 248 242 347 375 344 431 475 570 667 633 554 242 22 81
0 0 0 0 0 0 0 0 0 0 0 0 0 0 0 0 0 1 0 0 2 6 98 380 1093 935 644 497 291 132 264 263 407 417 458 475 442 534 616 630 683 713 777 929 857 762 506 116 79
0 0 0 0 0 0 0 0 0 0 0 0 0 0 0 0 0 0 0 0 19 0 5 84 447 958 936 739 499 477 446 428 486 586 649 635 756 868 1041 1054 922 839 890 1047 1014 910 687 297 243
0 0 0 0 0 0 0 0 0 0 0 0 0 0 0 0 0 0 0 0 0 0 0 6 136 318 812 752 723 723 731 777 859 979 954 1119 1222 1102 1041 992 930 1069 1087 1112 1101 1003 801 517 424
0 0 0 0 0 0 0 0 0 0 0 0 0 0 0 0 0 0 0 0 0 0 0 0 31 258 436 809 827 642 837 967 1159 1202 1285 1201 856 970 1146 1179 1098 1124 1219 1205 1189 1034 918 712 577
0 0 0 0 0 0 0 0 0 0 0 0 0 0 0 0 0 0 0 0 0 0 0 0 0 129 705 721 676 743 762 722 807 896 735 988 1203 1163 1254 1085 1141 1316 1320 1294 1280 1090 1027 874 729
0 0 0 0 0 0 0 0 0 0 0 0 0 0 0 0 0 0 0 0 0 0 0 0 0 41 769 1069 884 755 530 700 710 484 440 658 371 994 1042 1213 1358 1392 1373 1409 1350 1183 1169 991 817
0 0 0 0 0 0 0 0 0 0 0 0 0 0 0 0 0 0 0 0 0 0 0 0 0 0 193 1006 1026 849 637 642 494 447 340 445 702 1087 1266 1365 1415 1446 1514 1541 1420 1323 1215 986 1025
0 0 0 0 0 0 0 0 0 0 0 0 0 0 0 0 0 0 0 0 0 0 0 0 0 0 4 705 841 712 599 740 427 187 216 548 923 1225 1421 1422 1502 1632 1659 1547 1377 1387 1115 1187 1067
0 0 0 0 0 0 0 0 0 0 0 0 0 0 0 0 0 0 0 0 0 0 0 0 0 0 0 103 312 578 670 562 431 105 306 661 1083 1376 1554 1589 1666 1514 1433 1386 1274 1376 1295 1136 1052
0 0 0 0 0 0 0 0 0 0 0 0 0 0 0 0 0 0 0 0 0 0 0 0 0 0 0 6 80 233 546 478 167 117 425 602 998 1398 1533 1513 1418 1457 1461 1293 1485 1357 1129 1101 901
0 0 0 0 0 0 0 0 0 0 0 0 0 0 0 0 0 0 0 0 0 0 0 0 0 0 0 0 41 75 361 336 0 112 510 815 1116 1366 1419 1351 1436 1452 1377 1223 1456 1130 1155 1027 802
0 0 0 0 0 0 0 0 0 0 0 0 0 0 0 0 0 0 0 0 0 0 0 0 0 0 0 0 3 99 239 61 0 257 679 948 1126 1328 1383 1400 1466 1444 1131 1365 1126 1109 975 826 558
0 0 0 1 9 0 0 0 0 0 17 0 0 0 0 0 0 0 0 0 0 0 3 0 0 0 0 0 0 115 66 157 155 436 760 1056 1194 1349 1483 1524 1491 1184 1148 1155 1031 1123 782 445 213
0 0 0 0 0 14 3 0 0 0 3 0 0 0 0 0 0 0 0 0 0 91 116 89 0 0 0 0 10 187 309 497 524 647 827 1055 1298 1484 1626 1645 1407 1085 1186 1126 1344 886 306 131 139
CIN
-67 -0 -0 -0 -0 -0 -0 -0 -0 -0 -0 -0 -0 -0 -6 -0 -156 -84 -18 -8 -1073 -1018 -743 -448 -378 -301 -269 -267 -282 -266 -245 -214 -183 -149 -126 -117 -114 -148 -173 -151 -197 -278 -346 -0 -0 -0 -0 -0 -0
-37 -0 -0 -0 -0 -0 -0 -0 -0 -0 -0 -0 -0 -21 -45 -166 -96 -32 -21 -32 -44 -1046 -831 -690 -416 -354 -284 -277 -302 -299 -265 -222 -198 -169 -136 -123 -126 -153 -216 -235 -283 -342 -389 -414 -445 -0 -0 -0 -0
-0 -0 -0 -0 -0 -0 -0 -0 -0 -0 -0 -0 -0 -0 -12 -49 -51 -19 -114 -28 -50 -1063 -928 -840 -473 -386 -297 -292 -305 -335 -285 -259 -218 -190 -165 -145 -151 -162 -201 -238 -288 -377 -406 -440 -478 -0 -483 -454 -0
-0 -0 -0 -0 -0 -0 -0 -0 -0 -0 -0 -0 -0 -0 -0 -55 -21 -39 -21 -24 -36 -1006 -1006 -741 -543 -432 -341 -327 -319 -351 -312 -273 -240 -218 -200 -179 -186 -180 -212 -255 -300 -373 -409 -444 -484 -493 -476 -463 -0
-0 -0 -0 -0 -0 -0 -0 -0 -0 -0 -0 -0 -0 -0 -0 -35 -223 -425 -41 -32 -80 -1043 -1018 -745 -579 -475 -381 -351 -330 -356 -340 -303 -270 -236 -215 -202 -176 -194 -239 -280 -378 -421 -395 -442 -473 -455 -396 -380 -424
-0 -0 -0 -0 -0 -0 -0 -0 -0 -0 -0 -0 -0 -0 -20 -210 -477 -379 -31 -32 -32 -1081 -1127 -823 -588 -544 -467 -387 -355 -374 -371 -337 -305 -269 -239 -217 -202 -214 -258 -303 -363 -389 -361 -355 -350 -323 -303 -300 -289
-0 -0 -0 -0 -0 -0 -0 -0 -0 -0 -0 -3 -0 -0 -20 -303 -474 -501 -10 -16 -20 -628 -1061 -872 -735 -607 -487 -437 -397 -390 -394 -366 -350 -325 -292 -259 -231 -238 -260 -301 -347 -377 -318 -302 -279 -253 -243 -246 -260
-0 -151 -0 -0 -0 -0 -0 -0 -0 -0 -0 -0 -0 -0 -11 -6 -315 -375 -32 -32 -58 -1022 -947 -876 -756 -655 -623 -582 -418 -381 -388 -391 -375 -364 -336 -300 -265 -255 -271 -314 -317 -364 -352 -304 -239 -223 -198 -200 -200
-0 -0 -0 -0 -0 -2 -16 -0 -0 -0 -0 -0 -0 -41 -30 -366 -286 -205 -35 -931 -933 -921 -904 -835 -774 -703 -663 -670 -583 -443 -407 -398 -372 -369 -369 -371 -379 -356 -386 -390 -403 -372 -360 -314 -240 -222 -183 -173 -174
-0 -0 -0 -0 -0 -0 -0 -0 -0 -0 -0 -0 -0 -29 -26 -224 -254 -4 -9 -5 -91 -908 -935 -901 -833 -765 -727 -723 -710 -617 -633 -607 -567 -564 -534 -532 -554 -551 -529 -525 -448 -431 -364 -300 -249 -222 -200 -213 -266
-0 -0 -0 -0 -0 -0 -0 -0 -0 -0 -0 -0 -0 -31 -24 -21 -156 -141 -310 -0 -4 -801 -904 -917 -902 -836 -836 -814 -776 -706 -757 -722 -758 -795 -793 -764 -792 -770 -622 -680 -600 -537 -480 -482 -380 -318 -270 -318 -267
-0 -0 -0 -0 -0 -0 -0 -0 -0 -0 -0 -0 -0 -13 -24 -33 -10 -60 -117 -273 -409 -611 -758 -921 -928 -906 -925 -920 -871 -842 -907 -850 -890 -947 -972 -918 -950 -0 -903 -835 -849 -661 -634 -546 -583 -466 -366 -314 -303
-0 -0 -0 -0 -0 -0 -0 -0 -0 -0 -0 -0 -0 -0 -28 -38 -19 -15 -32 -73 -39 -326 -542 -754 -956 -601 -1003 -590 -1002 -981 -1040 -1014 -1044 -1013 -1023 -1088 -1081 -0 -0 -0 -973 -0 -520 -510 -665 -625 -503 -403 -340
-0 -0 -0 -0 -0 -0 -0 -0 -0 -0 -0 -0 -0 -0 -0 -13 -29 -18 -23 -30 -22 -218 -320 -534 -740 -820 -0 -44 -35 -0 -1136 -423 -824 -1076 -1083 -1068 -987 -0 -0 -0 -243 -215 -196 -204 -168 -190 -623 -525 -430
-0 -0 -0 -0 -0 -0 -0 -0 -0 -0 -0 -0 -11 -0 -0 -0 -0 -63 -23 -1 -65 -15 -357 -400 -523 -680 -890 -27 -37 -34 -42 -27 -39 -53 -65 -105 -746 -288 -299 -256 -260 -240 -210 -193 -163 -176 -165 -588 -530
-0 -0 -0 -0 -0 -0 -0 -0 -0 -0 -0 -0 -0 -0 -0 -25 -0 -0 -0 -0 -39 -26 -35 -399 -393 -464 -494 -407 -61 -13 -22 -21 -52 -32 -106 -194 -278 -273 -310 -288 -254 -220 -192 -165 -153 -156 -210 -226 -299
-0 -0 -0 -0 -0 -0 -0 -0 -0 -0 -0 -0 -0 -0 -0 -0 -3 -55 -0 -0 -43 -41 -44 -387 -321 -251 -286 -251 -222 -23 -70 -90 -94 -142 -182 -202 -299 -332 -320 -277 -255 -207 -199 -160 -145 -151 -185 -239 -269
-0 -0 -0 -0 -0 -0 -0 -0 -0 -0 -0 -0 -0 -0 -0 -0 -0 -0 -0 -0 -28 -0 -175 -215 -315 -270 -245 -175 -165 -95 -626 -188 -143 -176 -197 -218 -269 -311 -265 -279 -263 -210 -202 -166 -133 -134 -161 -215 -217
-0 -0 -0 -0 -0 -0 -0 -0 -0 -0 -0 -0 -0 -0 -0 -0 -0 -0 -0 -0 -0 -0 -0 -176 -262 -221 -396 -229 -151 -381 -533 -562 -323 -238 -248 -267 -279 -382 -369 -338 -283 -218 -185 -155 -117 -130 -150 -194 -178
-0 -0 -0 -0 -0 -0 -0 -0 -0 -0 -0 -0 -0 -0 -0 -0 -0 -0 -0 -0 -0 -0 -0 -0 -266 -215 -256 -256 -177 -319 -383 -344 -254 -278 -288 -222 -458 -430 -315 -264 -233 -225 -174 -136 -103 -120 -136 -151 -143
-0 -0 -0 -0 -0 -0 -0 -0 -0 -0 -0 -0 -0 -0 -0 -0 -0 -0 -0 -0 -0 -0 -0 -0 -0 -427 -357 -323 -280 -243 -214 -218 -200 -216 -448 -416 -320 -315 -320 -328 -265 -199 -145 -109 -96 -104 -110 -115 -95
-0 -0 -0 -0 -0 -0 -0 -0 -0 -0 -0 -0 -0 -0 -0 -0 -0 -0 -0 -0 -0 -0 -0 -0 -0 -315 -341 -315 -237 -196 -165 -203 -223 -314 -357 -234 -458 -584 -464 -349 -221 -171 -125 -107 -88 -84 -79 -79 -72
-0 -0 -0 -0 -0 -0 -0 -0 -0 -0 -0 -0 -0 -0 -0 -0 -0 -0 -0 -0 -0 -0 -0 -0 -0 -0 -382 -306 -208 -174 -175 -151 -184 -224 -356 -388 -540 -538 -420 -307 -210 -171 -129 -93 -89 -65 -58 -66 -33
-0 -0 -0 -0 -0 -0 -0 -0 -0 -0 -0 -0 -0 -0 -0 -0 -0 -0 -0 -0 -0 -0 -0 -0 -0 -0 -264 -258 -214 -168 -191 -165 -145 -591 -539 -572 -475 -446 -385 -293 -200 -146 -103 -89 -78 -44 -55 -24 -22
-0 -0 -0 -0 -0 -0 -0 -0 -0 -0 -0 -0 -0 -0 -0 -0 -0 -0 -0 -0 -0 -0 -0 -0 -0 -0 -0 -442 -273 -190 -129 -133 -130 -505 -496 -494 -415 -364 -339 -253 -187 -158 -107 -92 -77 -40 -29 -18 -21
-0 -0 -0 -0 -0 -0 -0 -0 -0 -0 -0 -0 -0 -0 -0 -0 -0 -0 -0 -0 -0 -0 -0 -0 -0 -0 -0 -494 -377 -298 -206 -136 -100 -600 -479 -457 -401 -312 -241 -223 -205 -154 -106 -77 -43 -23 -24 -16 -18
-0 -0 -0 -0 -0 -0 -0 -0 -0 -0 -0 -0 -0 -0 -0 -0 -0 -0 -0 -0 -0 -0 -0 -0 -0 -0 -0 -0 -415 -304 -213 -135 -0 -619 -455 -411 -317 -233 -170 -170 -147 -148 -87 -73 -34 -37 -12 -14 -19
-0 -0 -0 -0 -0 -0 -0 -0 -0 -0 -0 -0 -0 -0 -0 -0 -0 -0 -0 -0 -0 -0 -0 -0 -0 -0 -0 -0 -109 -208 -149 -315 -0 -605 -429 -333 -257 -176 -123 -97 -55 -101 -93 -44 -43 -29 -19 -9 -18
-0 -0 -0 -3 -6 -0 -0 -0 -0 -0 -246 -0 -0 -0 -0 -0 -0 -0 -0 -0 -0 -0 -264 -0 -0 -0 -0 -0 -0 -102 -468 -543 -605 -504 -382 -291 -209 -130 -59 -18 -36 -64 -58 -43 -31 -3 -9 -25 -57
-0 -0 -0 -0 -0 -14 -9 -0 -0 -0 -190 -0 -0 -0 -0 -0 -0 -0 -0 -0 -0 -122 -180 -286 -0 -0 -0 -0 -72 -682 -663 -570 -481 -429 -362 -271 -152 -91 -45 -13 -12 -61 -31 -24 -1 -2 -37 -73 -44
Wind_Speed
nan nan nan nan nan nan nan nan nan nan nan nan nan nan nan nan nan nan nan nan nan nan 19 23 29 26 25 25 29 32 34 35 34 32 32 34 34 34 32 30 31 31 nan nan nan nan nan nan nan
nan nan nan nan nan nan nan nan nan nan nan nan nan nan nan nan nan nan nan nan nan nan 26 27 31 28 27 25 30 34 35 34 36 33 30 31 31 33 36 34 32 nan nan nan nan nan nan nan nan
nan nan nan nan nan nan nan nan nan nan nan nan nan nan nan nan nan nan nan nan nan 41 30 29 30 29 24 26 30 34 34 36 35 38 35 34 34 33 34 36 34 nan nan nan nan nan nan nan nan
nan nan nan nan nan nan nan nan nan nan nan nan nan nan nan nan 11 20 nan nan nan 41 36 30 30 28 24 26 28 33 35 35 38 39 38 37 39 39 37 36 34 30 nan nan nan nan nan nan nan
nan nan nan nan nan nan nan nan nan nan nan nan nan nan nan nan 22 31 nan nan nan 39 29 23 26 26 22 25 28 33 36 37 37 38 38 38 38 39 37 34 33 31 nan nan nan nan nan nan nan
nan nan nan nan nan nan nan nan nan nan nan nan nan nan nan nan 25 nan nan nan nan nan 32 26 26 27 22 24 29 33 36 37 38 39 39 39 40 41 39 34 33 31 31 31 31 31 31 32 32
nan nan nan nan nan nan nan nan nan nan nan nan nan nan nan 27 29 nan nan nan nan nan 33 31 26 23 24 23 26 30 34 37 39 41 41 41 42 41 39 33 34 32 30 30 32 32 32 32 30
nan nan nan nan nan nan nan nan nan nan nan nan nan nan nan 34 35 nan nan nan nan nan 32 36 28 24 23 21 24 24 30 34 38 41 41 42 41 40 37 34 34 35 33 32 33 34 32 31 29
nan nan nan nan nan nan nan nan nan nan nan nan nan nan nan 38 40 nan nan nan 34 34 32 29 24 23 23 22 23 21 23 29 32 37 41 38 31 33 33 32 34 35 35 34 34 35 33 32 30
nan nan nan nan nan nan nan nan nan nan nan nan nan nan nan 42 43 33 nan nan nan nan 23 19 20 20 25 23 21 19 16 17 23 26 32 30 29 29 30 32 35 37 36 36 35 36 36 33 29
nan nan nan nan nan nan nan nan nan nan nan nan nan nan nan nan 40 31 nan nan nan nan nan 18 19 21 22 24 21 17 19 19 17 22 27 29 28 26 26 29 30 31 34 32 32 33 32 33 30
nan nan nan nan nan nan nan nan nan nan nan nan nan nan nan 45 42 38 30 24 23 23 23 25 nan 20 19 nan 17 19 21 18 15 19 26 28 nan nan nan nan nan 35 nan 34 nan 33 33 33 32
nan nan nan nan nan nan nan nan nan nan nan nan nan nan nan nan nan nan nan nan nan 29 24 22 nan nan nan nan nan 27 22 nan nan nan nan nan nan nan nan nan nan nan nan nan nan nan 35 33 32
nan nan nan nan nan nan nan nan nan nan nan nan nan nan nan nan nan nan nan nan nan 18 28 22 26 nan nan nan nan nan nan nan nan nan nan nan nan nan nan nan nan nan 36 36 36 nan nan nan 33
nan nan nan nan nan nan nan nan nan nan nan nan nan nan nan nan nan nan nan nan nan nan 31 33 27 31 nan nan nan nan nan nan nan 29 30 nan nan nan nan 29 32 36 37 40 40 35 nan nan nan
nan nan nan nan nan nan nan nan nan nan nan nan nan nan nan nan nan nan nan nan nan nan 41 35 39 36 36 36 nan nan 28 28 30 31 32 32 31 31 28 30 31 37 38 41 42 36 35 nan nan
nan nan nan nan nan nan nan nan nan nan nan nan nan nan nan nan nan nan nan nan nan nan nan 45 40 38 38 43 42 41 35 36 32 35 33 33 34 33 30 30 31 38 40 43 43 35 36 35 nan
nan nan nan nan nan nan nan nan nan nan nan nan nan nan nan nan nan nan nan nan nan nan nan nan 48 39 39 42 42 38 38 32 33 27 33 36 34 34 32 29 32 37 41 44 41 35 36 37 32
nan nan nan nan nan nan nan nan nan nan nan nan nan nan nan nan nan nan nan nan nan nan nan nan 57 45 43 46 46 45 34 30 29 29 33 40 38 36 35 29 34 39 41 45 40 36 37 36 32
nan nan nan nan nan nan nan nan nan nan nan nan nan nan nan nan nan nan nan nan nan nan nan nan nan 48 52 48 39 44 41 41 34 37 36 40 42 38 35 32 34 38 41 43 40 38 38 37 36
nan nan nan nan nan nan nan nan nan nan nan nan nan nan nan nan nan nan nan nan nan nan nan nan nan 46 49 50 58 55 49 44 47 38 39 40 41 37 34 34 36 38 41 41 40 40 41 39 33
nan nan nan nan nan nan nan nan nan nan nan nan nan nan nan nan nan nan nan nan nan nan nan nan nan nan 55 56 58 51 45 43 37 43 44 44 41 42 39 39 38 39 41 42 41 39 40 38 36
nan nan nan nan nan nan nan nan nan nan nan nan nan nan nan nan nan nan nan nan nan nan nan nan nan nan 60 56 52 52 47 44 45 46 48 45 47 43 41 41 41 40 41 40 42 40 40 35 35
nan nan nan nan nan nan nan nan nan nan nan nan nan nan nan nan nan nan nan nan nan nan nan nan nan nan nan 51 48 43 38 39 41 39 41 46 44 42 44 43 45 42 42 40 39 39 40 35 34
nan nan nan nan nan nan nan nan nan nan nan nan nan nan nan nan nan nan nan nan nan nan nan nan nan nan nan 44 47 40 29 27 28 34 41 45 49 48 49 47 47 42 41 40 40 39 38 34 32
nan nan nan nan nan nan nan nan nan nan nan nan nan nan nan nan nan nan nan nan nan nan nan nan nan nan nan nan nan 38 32 28 32 37 41 42 43 49 50 46 46 43 41 41 39 37 35 34 31
nan nan nan nan nan nan nan nan nan nan nan nan nan nan nan nan nan nan nan nan nan nan nan nan nan nan nan nan nan nan 33 35 nan 40 44 41 43 47 47 45 42 40 40 40 39 37 34 34 30
nan nan nan nan nan nan nan nan nan nan nan nan nan nan nan nan nan nan nan nan nan nan nan nan nan nan nan nan nan nan 38 nan nan 47 42 40 40 42 46 42 40 39 40 40 38 35 34 32 31
nan nan nan nan nan nan nan nan nan nan nan nan nan nan nan nan nan nan nan nan nan nan nan nan nan nan nan nan nan 50 nan 43 44 44 41 40 43 43 39 41 38 37 38 38 37 33 32 31 32
nan nan nan nan nan nan nan nan nan nan nan nan nan nan nan nan nan nan nan nan nan nan 65 nan nan nan nan nan nan 48 45 47 41 40 41 42 40 34 36 39 34 33 35 35 34 31 31 30 31
Wind_Direction
nan nan nan nan nan nan nan nan nan nan nan nan nan nan nan nan nan nan nan nan nan nan 330 337 329 338 340 345 337 333 327 328 329 329 330 330 333 337 338 341 343 343 nan nan nan nan nan nan nan
nan nan nan nan nan nan nan nan nan nan nan nan nan nan nan nan nan nan nan nan nan nan 310 325 328 336 341 343 340 334 331 334 331 335 342 342 340 343 342 342 344 nan nan nan nan nan nan nan nan
nan nan nan nan nan nan nan nan nan nan nan nan nan nan nan nan nan nan nan nan nan 296 308 316 321 325 341 340 347 340 338 337 338 336 344 348 348 349 348 344 341 nan nan nan nan nan nan nan nan
nan nan nan nan nan nan nan nan nan nan nan nan nan nan nan nan 274 283 nan nan nan 293 305 312 309 315 335 338 350 345 341 337 335 340 345 353 353 351 353 352 347 348 nan nan nan nan nan nan nan
nan nan nan nan nan nan nan nan nan nan nan nan nan nan nan nan 231 271 nan nan nan 294 298 296 310 311 333 334 341 342 341 342 339 341 344 352 357 356 356 355 351 350 nan nan nan nan nan nan nan
nan nan nan nan nan nan nan nan nan nan nan nan nan nan nan nan 254 nan nan nan nan nan 285 284 305 307 323 330 337 340 338 342 343 343 347 354 358 358 357 357 354 353 353 352 353 349 347 347 340
nan nan nan nan nan nan nan nan nan nan nan nan nan nan nan 222 246 nan nan nan nan nan 266 274 286 294 306 318 328 332 336 341 344 343 348 353 360 359 358 357 357 354 352 350 349 346 345 346 344
nan nan nan nan nan nan nan nan nan nan nan nan nan nan nan 209 246 nan nan nan nan nan 255 265 266 268 276 290 314 329 336 339 345 344 346 352 358 359 0 358 357 355 352 350 348 343 343 345 345
nan nan nan nan nan nan nan nan nan nan nan nan nan nan nan 221 243 nan nan nan 237 242 246 256 263 262 268 276 295 322 338 339 340 345 348 352 352 356 359 355 359 358 353 349 346 342 339 344 343
nan nan nan nan nan nan nan nan nan nan nan nan nan nan nan 220 224 235 nan nan nan nan 239 262 268 266 264 273 281 298 313 321 327 335 340 344 348 351 354 353 357 358 353 349 345 340 339 342 328
nan nan nan nan nan nan nan nan nan nan nan nan nan nan nan nan 217 227 nan nan nan nan nan 274 268 254 272 274 272 285 295 297 302 320 329 333 339 341 344 341 345 340 346 332 337 329 327 327 326
nan nan nan nan nan nan nan nan nan nan nan nan nan nan nan 209 208 217 217 202 220 254 270 268 nan 269 271 nan 271 284 291 302 293 318 322 323 nan nan nan nan nan 339 nan 332 nan 322 324 324 330
nan nan nan nan nan nan nan nan nan nan nan nan nan nan nan nan nan nan nan nan nan 253 248 275 nan nan nan nan nan 283 285 nan nan nan nan nan nan nan nan nan nan nan nan nan nan nan 322 324 329
nan nan nan nan nan nan nan nan nan nan nan nan nan nan nan nan nan nan nan nan nan 244 269 250 273 nan nan nan nan nan nan nan nan nan nan nan nan nan nan nan nan nan 336 325 325 nan nan nan 322
nan nan nan nan nan nan nan nan nan nan nan nan nan nan nan nan nan nan nan nan nan nan 254 270 263 264 nan nan nan nan nan nan nan 298 304 nan nan nan nan 323 323 327 331 323 323 321 nan nan nan
nan nan nan nan nan nan nan nan nan nan nan nan nan nan nan nan nan nan nan nan nan nan 247 255 268 266 270 275 nan nan 276 275 286 291 295 304 305 309 315 317 321 318 322 321 323 319 313 nan nan
nan nan nan nan nan nan nan nan nan nan nan nan nan nan nan nan nan nan nan nan nan nan nan 256 256 270 279 275 270 269 277 272 276 282 294 299 302 307 314 315 317 314 319 320 325 318 311 314 nan
nan nan nan nan nan nan nan nan nan nan nan nan nan nan nan nan nan nan nan nan nan nan nan nan 255 258 271 269 265 260 273 261 267 282 291 291 292 305 307 307 313 315 315 319 324 316 311 313 316
nan nan nan nan nan nan nan nan nan nan nan nan nan nan nan nan nan nan nan nan nan nan nan nan 256 255 257 260 261 262 270 260 264 280 293 292 292 300 300 306 313 313 317 325 326 313 314 312 312
nan nan nan nan nan nan nan nan nan nan nan nan nan nan nan nan nan nan nan nan nan nan nan nan nan 250 252 252 256 257 264 262 271 277 284 290 291 290 293 308 312 312 308 318 317 312 310 312 311
nan nan nan nan nan nan nan nan nan nan nan nan nan nan nan nan nan nan nan nan nan nan nan nan nan 247 252 259 252 251 250 255 267 278 284 288 290 291 300 306 303 302 309 317 313 311 315 311 308
nan nan nan nan nan nan nan nan nan nan nan nan nan nan nan nan nan nan nan nan nan nan nan nan nan nan 252 257 258 259 263 270 270 274 270 283 287 289 295 294 299 300 307 308 309 309 309 307 303
nan nan nan nan nan nan nan nan nan nan nan nan nan nan nan nan nan nan nan nan nan nan nan nan nan nan 250 258 266 261 258 257 262 263 275 275 277 283 287 290 294 296 303 305 306 306 308 305 300
nan nan nan nan nan nan nan nan nan nan nan nan nan nan nan nan nan nan nan nan nan nan nan nan nan nan nan 256 268 273 276 269 268 274 275 266 266 273 278 284 289 288 296 301 305 306 307 306 300
nan nan nan nan nan nan nan nan nan nan nan nan nan nan nan nan nan nan nan nan nan nan nan nan nan nan nan 256 267 274 274 277 283 280 271 259 257 261 275 277 281 282 293 302 299 302 302 304 300
nan nan nan nan nan nan nan nan nan nan nan nan nan nan nan nan nan nan nan nan nan nan nan nan nan nan nan nan nan 264 270 262 259 266 265 264 262 261 268 270 276 282 292 298 296 297 298 297 298
nan nan nan nan nan nan nan nan nan nan nan nan nan nan nan nan nan nan nan nan nan nan nan nan nan nan nan nan nan nan 264 253 nan 263 262 263 262 260 266 267 272 280 292 295 295 293 295 293 297
nan nan nan nan nan nan nan nan nan nan nan nan nan nan nan nan nan nan nan nan nan nan nan nan nan nan nan nan nan nan 262 nan nan 249 261 270 270 273 267 264 269 279 289 285 289 287 286 294 298
nan nan nan nan nan nan nan nan nan nan nan nan nan nan nan nan nan nan nan nan nan nan nan nan nan nan nan nan nan 250 nan 249 249 248 255 266 274 273 265 265 271 280 280 283 284 285 289 298 303
nan nan nan nan nan nan nan nan nan nan nan nan nan nan nan nan nan nan nan nan nan nan 211 nan nan nan nan nan nan 242 238 242 246 249 258 271 271 267 266 267 272 273 279 284 284 288 293 304 304